sat.trackr.live / text

‹ back to catalog

HULIANWANG DIGUI-94

NORAD 66002 · 2025-231H

PAYLOAD ACTIVE UNKNOWN

§ Identity

Operator
Country
PRC
Launch date
2025-10-16
Launch site
WSC
Launch vehicle
Mass (kg)
RCS (m²)

External: N2YO · Heavens-Above · Gunter

§ Orbital elements

Epoch: 2026-09-20T01:48:04.243968Z

Period
108.33 min
Inclination
50.0053°
Eccentricity
0.0000446
Mean motion
13.29329046 rev/d
Perigee alt
1,149.0 km
Apogee alt
1,149.6 km
Semi-major
7,527.4 km
B*
5.3400e-5
RAAN
195.2906°
Arg perigee
62.6149°
Mean anomaly
297.4768°
Rev number
4,551

§ Raw data

HULIANWANG DIGUI-941 66002U 25231H   26263.07504912 -.00000099  00000+0  53400-4 0  99982 66002  50.0053 195.2906 0000446  62.6149 297.4768 13.29329046 45510

JSON: /api/v1/satellites/66002 · /tle

For live sub-satellite position, see the globe view (requires WebGL).

§ Visibility from observer

Set your observer location to see the next 7 days of passes ≥ 10°. The values pass through the URL so the page stays shareable.

No JS? Fill the form by hand. The geolocation button needs JavaScript.